Location: ??????????
(44.2167°N, 135.5333°E)
Time: 15:23:20
(UTC+00:00)

Okean 1 Rocket - Pass Details

Date: 15 June 2025
Orbit: 601 x 627 km, 82.5° (Epoch: 15 July)

Event Time Altitude Azimuth Distance (km) Brightness Sun altitude
Rises 16:40:22 0° 348° (NNW) 2,925 7.4 -18.5°
Reaches altitude 10° 16:42:37 10° 346° (NNW) 2,013 6.4 -18.4°
Maximum altitude 16:47:02 65° 265° (W) 692 3.1 -18.0°
Enters shadow 16:48:39 37° 197° (SSW) 978 3.5 -17.9°
